Location: Unspecified
(0.0000°N, 0.0000°E)
Time: 22:31:39
(UTC+00:00)

DMSP F15 (USA 147) - Pass Details

Date: 01 October 2020
Orbit: 829 x 845 km, 99.0° (Epoch: 26 October)

Event Time Altitude Azimuth Distance (km) Brightness Sun altitude
Rises 03:11:43 0° 27° (NNE) 3,355 8.6 -39.4°
Reaches altitude 10° 03:14:11 10° 34° (NE) 2,425 7.8 -38.8°
Enters shadow 03:14:23 11° 35° (NE) 2,352 7.8 -38.7°
